Location: Peebles
(55.6412°N, 3.1714°W)
Time: 11:10:24
(UTC+01:00)

deb NNS O-4 - Pass Details

Date: 27 June 2022
Orbit: 977 x 1074 km, 89.9° (Epoch: 15 August)

Event Time Altitude Azimuth Distance (km) Brightness Sun altitude
Exits shadow 01:32:05 - 137° (SE) 3,874 ? -11.0°
Rises 01:32:08 0° 137° (SE) 3,860 ? -11.0°
Reaches altitude 10° 01:34:59 10° 128° (SE) 2,910 ? -10.9°
Maximum altitude 01:40:38 30° 70° (ENE) 1,809 ? -10.9°
Drops below altitude 10° 01:46:16 10° 12° (NNE) 2,905 ? -10.8°
Sets 01:49:06 0° 2° (N) 3,853 ? -10.7°
